ASTRA 4A

Last updated on Sun Apr 12 2026 00:02:51 GMT+0000 (Coordinated Universal Time)

1 32299U 07057A 26101.37884310 .00000034 00000+0 00000+0 0 9993 2 32299 0.0595 66.3213 0002720 328.5049 305.9569 1.00272461 50970
UTC large
Height (km)
Speed (km/s)
/
Latitude / Longitude
Inclination (degrees)
Orbital Period (minutes)
Azimuth
Elevation
Range (km)
Doppler Factor

Next 0 passes for location: London (51.5072 / 0.1276)

Sorry there are no passes over London.
ASTRA 4A